OPS 1264 (DMSP 4A F4)

Satellite information

Favourite Embed

Satellite Type and Status

PAYLOADIN ORBIT

Key statistics

Satellite OPS 1264 (DMSP 4A F4) at a glance.

Uptime

21248

Days in orbit

Revolutions

≈ 14.6

Per day

Orbit

SSO

Sun Synchronous Orbit

Inclination

99.2

Latest

Satellite identification and parameters

Extended collection of information and parameters for OPS 1264 (DMSP 4A F4).

Object identification

Identified? True

Debris? False

Object name: OPS 1264 (DMSP 4A F4)

International designator: 1967-096A

Object number (NORAD): 2980

Object ID (CCSDS): 2980

Country: UNITED STATES OF AMERICA (US)

Current information (Y/N): Y

RCS size: MEDIUM

Orbital parameters

Period: 98.445 minutes

Inclination: 99.2069 deg

SMA: 7062.471 km

Apoapsis: 749.937 km

Periapsis: 618.735 km

RAAN: 35.8279 deg

Eccentricy: 0.00928865

Argument of periapsis: 321.4808 deg

Mean anomaly: 37.9786 deg

Mean motion: 14.62741986 rev/day

Mean motion (dot): 0.00000903 rev/day2

B* drag term: 0.00017862493 1/REarth

Two-line elements (TLE)

Creation date: Dec. 12, 2025, 10:14 a.m.

Reference frame: TEME

Reference center: EARTH

Epoch: Dec. 12, 2025, 2:46 a.m. UTC

TLE line 0: 0 OPS 1264 (DMSP 4A F4)

TLE line 1: 1 02980U 67096A 25346.11535761 .00000903 00000-0 17862-3 0 9995

TLE line 2: 2 02980 99.2069 35.8279 0092886 321.4808 37.9786 14.62741986 59775

Live tracking on map

Real-time ground track for satellite OPS 1264 (DMSP 4A F4).

In-orbit conjunctions

There are no conjunctions computed for OPS 1264 (DMSP 4A F4), at the moment. Check back to stay up to date, as we update our databases every day.

Go to all conjunctions

Associated space launch

DSAP-4A (Defense Satellite Application Program Block 4A) was the fourth version of the military meteorological satellites of the Defense Meteorological Satellite Program.

OPS 1264 (DMSP 4A F4) was lifted into orbit during the mission ‘Thor Burner 2 | DSAP-4A F4’, on board a Thor Burner 2 space rocket.

The launch took place on Oct. 11, 1967, 7:57 a.m. from Space Launch Complex 10W.

For more information about the launch, click the button.

Launch to space Thor Burner 2 | DSAP-4A F4
Thor Burner 2 | DSAP-4A F4

Agency: N/A

Status: Launch Successful

Launch date: Oct. 11, 1967, 7:57 a.m. UTC

Rocket: Thor Burner 2

Launch pad: Space Launch Complex 10W

Location: Vandenberg SFB, CA, USA

...

Latest news about this satellite

There are no fresh news available about this satellite. Check back as we update our databases every day.


Newsletter sign-up

Weekly statistics, charts and insights to help you stay on top of the space industry.